TimeCST,TemperatureF,Dew PointF,Humidity,Sea Level PressureIn,VisibilityMPH,Wind Direction,Wind SpeedMPH,Gust SpeedMPH,PrecipitationIn,Events,Conditions,WindDirDegrees,DateUTC
12:15 AM,30.2,22.8,74,30.07,10.0,NE,10.4,-,N/A,,Overcast,40,2013-02-28 06:15:00
12:35 AM,29.8,21.9,72,30.07,10.0,NE,8.1,-,N/A,,Overcast,40,2013-02-28 06:35:00
1:15 AM,29.5,21.0,71,30.07,10.0,NE,6.9,-,N/A,,Overcast,40,2013-02-28 07:15:00
1:35 AM,29.3,21.4,72,30.08,10.0,NE,6.9,-,N/A,,Overcast,40,2013-02-28 07:35:00
1:55 AM,29.1,21.4,73,30.08,10.0,NE,8.1,-,N/A,,Overcast,50,2013-02-28 07:55:00
2:15 AM,29.1,21.2,72,30.09,10.0,NE,10.4,-,N/A,,Overcast,50,2013-02-28 08:15:00
2:35 AM,29.1,20.7,71,30.09,10.0,NE,9.2,-,N/A,,Overcast,40,2013-02-28 08:35:00
2:55 AM,28.9,19.9,69,30.09,10.0,NE,8.1,-,N/A,,Overcast,40,2013-02-28 08:55:00
3:15 AM,28.8,19.9,70,30.10,10.0,NE,6.9,-,N/A,,Overcast,40,2013-02-28 09:15:00
3:55 AM,28.0,19.8,71,30.11,10.0,NE,9.2,-,N/A,,Overcast,40,2013-02-28 09:55:00
4:35 AM,27.9,19.8,72,30.12,10.0,NE,8.1,-,N/A,,Overcast,40,2013-02-28 10:35:00
4:55 AM,27.5,19.9,73,30.13,10.0,NNE,6.9,-,N/A,,Overcast,20,2013-02-28 10:55:00
5:15 AM,27.5,19.4,72,30.14,10.0,NNE,9.2,-,N/A,,Overcast,20,2013-02-28 11:15:00
5:35 AM,27.5,18.9,70,30.14,10.0,NNE,6.9,-,N/A,,Overcast,30,2013-02-28 11:35:00
5:55 AM,27.3,18.9,70,30.14,10.0,NNE,9.2,-,N/A,,Overcast,30,2013-02-28 11:55:00
6:15 AM,27.1,18.5,70,30.15,10.0,NNE,8.1,-,N/A,,Overcast,20,2013-02-28 12:15:00
6:35 AM,27.0,18.5,70,30.16,10.0,NNE,9.2,-,N/A,,Overcast,20,2013-02-28 12:35:00
6:55 AM,26.6,18.5,71,30.16,10.0,NE,10.4,-,N/A,,Overcast,40,2013-02-28 12:55:00
7:15 AM,26.6,18.5,71,30.17,10.0,NNE,9.2,-,N/A,,Overcast,30,2013-02-28 13:15:00
7:35 AM,26.6,18.5,71,30.17,10.0,NE,9.2,-,N/A,,Overcast,40,2013-02-28 13:35:00
7:55 AM,26.6,18.5,71,30.18,10.0,NE,9.2,-,N/A,,Overcast,40,2013-02-28 13:55:00
8:15 AM,26.6,18.9,73,30.18,10.0,NE,10.4,-,N/A,,Overcast,40,2013-02-28 14:15:00
8:35 AM,26.4,18.1,71,30.19,10.0,NE,8.1,17.3,N/A,,Overcast,50,2013-02-28 14:35:00
8:55 AM,26.4,18.3,71,30.19,10.0,NE,12.7,18.4,N/A,,Overcast,50,2013-02-28 14:55:00
9:15 AM,26.6,18.0,70,30.19,10.0,NE,10.4,16.1,N/A,,Overcast,50,2013-02-28 15:15:00
9:35 AM,26.6,17.6,69,30.19,10.0,NE,12.7,-,N/A,,Overcast,40,2013-02-28 15:35:00
9:55 AM,26.6,17.4,68,30.20,10.0,NE,10.4,16.1,N/A,,Overcast,40,2013-02-28 15:55:00
10:15 AM,26.6,17.2,68,30.21,10.0,NE,11.5,17.3,N/A,,Overcast,50,2013-02-28 16:15:00
10:35 AM,26.4,16.7,67,30.21,10.0,NE,11.5,18.4,N/A,,Overcast,50,2013-02-28 16:35:00
10:55 AM,26.6,16.5,66,30.21,10.0,NE,12.7,18.4,N/A,Snow,Light Snow,40,2013-02-28 16:55:00
11:15 AM,26.4,16.2,65,30.22,10.0,NNE,11.5,17.3,N/A,,Overcast,30,2013-02-28 17:15:00
11:35 AM,26.6,16.7,66,30.22,10.0,NE,13.8,17.3,N/A,,Overcast,50,2013-02-28 17:35:00
11:55 AM,27.0,17.2,67,30.22,10.0,NE,11.5,18.4,N/A,,Overcast,50,2013-02-28 17:55:00
12:15 PM,27.5,17.8,67,30.22,10.0,NE,10.4,21.9,N/A,,Overcast,50,2013-02-28 18:15:00
12:35 PM,28.0,18.3,67,30.22,10.0,NE,12.7,17.3,N/A,,Overcast,50,2013-02-28 18:35:00
12:55 PM,28.4,17.8,64,30.22,10.0,ENE,12.7,18.4,N/A,,Overcast,60,2013-02-28 18:55:00
1:15 PM,28.2,17.8,65,30.22,10.0,NE,11.5,18.4,N/A,,Overcast,50,2013-02-28 19:15:00
1:35 PM,29.1,17.8,63,30.22,10.0,ENE,15.0,18.4,N/A,,Scattered Clouds,70,2013-02-28 19:35:00
1:55 PM,29.3,17.8,62,30.22,10.0,East,15.0,19.6,N/A,,Clear,80,2013-02-28 19:55:00
2:15 PM,29.8,17.6,60,30.21,10.0,East,12.7,20.7,N/A,,Clear,80,2013-02-28 20:15:00
2:35 PM,28.9,17.2,62,30.22,10.0,East,13.8,20.7,N/A,,Clear,80,2013-02-28 20:35:00
2:55 PM,29.3,17.4,61,30.22,10.0,ENE,13.8,20.7,N/A,,Clear,70,2013-02-28 20:55:00
3:15 PM,28.4,17.4,63,30.23,10.0,ENE,13.8,-,N/A,,Clear,60,2013-02-28 21:15:00
3:35 PM,28.4,17.8,64,30.23,10.0,ENE,12.7,18.4,N/A,,Clear,60,2013-02-28 21:35:00
3:55 PM,28.2,18.3,66,30.23,10.0,ENE,11.5,18.4,N/A,,Clear,60,2013-02-28 21:55:00
4:15 PM,27.9,18.5,68,30.23,10.0,ENE,10.4,-,N/A,,Clear,70,2013-02-28 22:15:00
4:35 PM,27.3,18.1,68,30.24,10.0,East,10.4,18.4,N/A,,Clear,80,2013-02-28 22:35:00
4:55 PM,26.8,17.8,69,30.24,10.0,ENE,10.4,-,N/A,,Clear,60,2013-02-28 22:55:00
5:15 PM,26.2,18.1,71,30.24,10.0,East,9.2,17.3,N/A,,Clear,80,2013-02-28 23:15:00
6:15 PM,25.3,17.6,72,30.26,10.0,ENE,9.2,16.1,N/A,,Clear,60,2013-03-01 00:15:00
6:35 PM,25.3,17.6,72,30.26,10.0,ENE,9.2,18.4,N/A,,Clear,60,2013-03-01 00:35:00
6:55 PM,25.2,17.6,73,30.26,10.0,ENE,10.4,-,N/A,,Clear,60,2013-03-01 00:55:00
7:15 PM,25.2,17.6,73,30.26,10.0,ENE,9.2,-,N/A,,Clear,70,2013-03-01 01:15:00
7:35 PM,24.8,17.4,74,30.26,10.0,East,8.1,-,N/A,,Clear,80,2013-03-01 01:35:00
7:55 PM,25.2,17.4,72,30.27,10.0,East,9.2,-,N/A,,Scattered Clouds,80,2013-03-01 01:55:00
8:15 PM,23.9,17.2,76,30.27,10.0,ESE,6.9,-,N/A,,Overcast,110,2013-03-01 02:15:00
8:35 PM,23.0,16.7,77,30.27,10.0,East,6.9,-,N/A,,Mostly Cloudy,100,2013-03-01 02:35:00
8:55 PM,23.5,16.3,74,30.28,10.0,East,6.9,-,N/A,,Overcast,100,2013-03-01 02:55:00
9:15 PM,23.0,15.8,74,30.28,10.0,East,9.2,-,N/A,,Scattered Clouds,100,2013-03-01 03:15:00
9:35 PM,23.0,15.6,73,30.28,10.0,East,9.2,-,N/A,,Scattered Clouds,100,2013-03-01 03:35:00
9:55 PM,22.6,15.6,74,30.29,10.0,East,6.9,-,N/A,,Mostly Cloudy,100,2013-03-01 03:55:00
10:15 PM,22.6,14.9,72,30.29,10.0,East,5.8,-,N/A,,Mostly Cloudy,90,2013-03-01 04:15:00
10:35 PM,23.0,14.9,71,30.29,10.0,East,6.9,-,N/A,,Overcast,100,2013-03-01 04:35:00
10:55 PM,23.0,14.5,70,30.29,10.0,East,5.8,-,N/A,,Overcast,90,2013-03-01 04:55:00
11:15 PM,22.5,14.0,70,30.29,10.0,East,5.8,-,N/A,,Overcast,100,2013-03-01 05:15:00
11:35 PM,22.1,13.5,69,30.29,10.0,East,5.8,-,N/A,,Overcast,90,2013-03-01 05:35:00
11:55 PM,21.9,12.9,68,30.29,10.0,East,6.9,-,N/A,,Mostly Cloudy,100,2013-03-01 05:55:00